{"data":{"norad_id":61551,"epoch":"2026-05-25T00:33:47.680992Z","epoch_age_seconds":73774,"freshness":"FRESH","line1":"1 61551U 24184V   26145.02346853  .00001370  00000+0  51673-4 0  9992","line2":"2 61551  53.1614  19.4062 0000883  94.3551 265.7553 15.34389223 90190","mean_motion":15.34389223,"eccentricity":8.83e-5,"inclination_deg":53.1614,"raan_deg":19.4062,"arg_perigee_deg":94.3551,"mean_anomaly_deg":265.7553,"bstar":5.1673e-5,"rev_number":9019,"period_min":93.848417234354,"perigee_km":462.13122288813,"apogee_km":463.33932093135,"semimajor_km":6840.8722719097,"source":"CELESTRAK","updated_at":"2026-05-25T13:38:19.401122Z"}}